Weather Roundup
Issued by NWS Springfield, MO

Home | Current Version | Previous Version | Text Only | Print | Product List | Glossary On
Versions: 1 2 3 4 5 6 7 8 9 10 11 12 13 14 15 16 17 18 19 20 21 22 23 24 25 26 27 28 29 30 31 32 33 34 35 36 37 38 39 40 41 42 43 44 45 46 47 48 49 50
000
NZUS99 KSGF 300607
HRRSGF

HOURLY WEATHER
NATIONAL WEATHER SERVICE SPRINGFIELD MO
100 AM CDT THU MAR 30 2017

......SGF CWA......

CITY           SKY/WX    TMP DP  RH WIND       PRES   REMARKS
SPRINGFIELD    MOCLDY    56  53  90 S6        29.65F
6HR MIN TEMP:  56; 6HR MAX TEMP:  69; 6HR PCP:  0.03;

JOPLIN         CLEAR     51  46  83 SW12      29.66S
6HR MIN TEMP:  51; 6HR MAX TEMP:  71; 6HR PCP: TRACE;

ROLLA          CLOUDY    63  61  93 SE10      29.64F
6HR MIN TEMP:  62; 6HR MAX TEMP:  67; 6HR PCP:  0.42;

OSAGE BEACH    CLOUDY    63  60  90 S8        29.64S
BRANSON        CLOUDY    61  54  77 CALM      29.68F

......SURROUNDING SGF CWA......

CITY           SKY/WX    TMP DP  RH WIND       PRES   REMARKS
CHANUTE        CLOUDY    49  44  83 S15       29.61S
PARSONS        CLOUDY    49  43  80 SW12      29.64R
COFFEYVILLE    CLOUDY    50  44  80 SW16G22   29.65S
EMPORIA        CLOUDY    48  48 100 SE7       29.55F
GROVE OK       PTCLDY    52  45  76 SW12G17   29.70S
ROGERS AR      PTCLDY    54  48  80 W9        29.69F
SILOAM SPRINGS CLEAR     52  41  66 SW10      29.70S
HARRISON AR    CLOUDY    61  53  75 W7        29.68S
NEAR YELLVILLE CLOUDY    64  55  72 S5        29.64F

......KANSAS AND MISSOURI......

CITY           SKY/WX    TMP DP  RH WIND       PRES   REMARKS
KANSAS CTY INT CLOUDY    53  53 100 NE17      29.59F FOG
DOWNTOWN KC    CLOUDY    54  53  97 E10       29.59F
COLUMBIA       CLOUDY    60  60 100 E8        29.62F
SEDALIA        FOG       58  57  97 W3        29.64R VSB 1/2
ST JOSEPH      CLOUDY    51  51 100 E14G26    29.62S
ST LOUIS       TSTM      61  55  81 E14       29.67F
SPIRIT OF STL  HVY RAIN  59  59 100 CALM      29.70S FOG
KIRKSVILLE     CLOUDY    49  50 100 NE15      29.68F
WICHITA        DRIZZLE   44  44 100 NW18G28   29.64S
TOPEKA         CLOUDY    54  50  86 SE6       29.56F
OLATHE         CLOUDY    53  53 100 E8        29.59F FOG

......TENNESSEE......

CITY           SKY/WX    TMP DP  RH WIND       PRES   REMARKS
MEMPHIS        LGT RAIN  68  59  73 S26G44    29.74F
NASHVILLE      CLOUDY    69  58  67 S5        29.88S

......ARKANSAS.......

CITY           SKY/WX    TMP DP  RH WIND       PRES   REMARKS
FAYETTEVILLE   PTCLDY    54  49  83 SW7       29.70F
FT SMITH       CLEAR     57  46  66 W13       29.73R
LITTLE ROCK    TSTM      67  64  90 S12G22    29.71F

......OKLAHOMA.......

CITY           SKY/WX    TMP DP  RH WIND       PRES   REMARKS
TULSA          CLOUDY    50  42  74 W17G29    29.70S
PONCA CITY     CLOUDY    46  42  86 W12       29.68F
MCALESTER      PTCLDY    51  41  68 SW8       29.77S
OKLAHOMA CITY  MOCLDY    47  39  74 NW16      29.77F

......IOWA............

CITY           SKY/WX    TMP DP  RH WIND       PRES   REMARKS
DES MOINES     CLOUDY    44  41  89 E13G24    29.79F
QUAD CITIES    TSTM      44  40  85 E18       29.86R FOG

......ILLINOIS........

CITY           SKY/WX    TMP DP  RH WIND       PRES   REMARKS
QUINCY         TSTM      54  51  90 SW8G21    29.73R
CHICAGO        LGT RAIN  43  38  82 NE18      29.97F



USA.gov is the U.S. government's official web portal to all federal, state and local government web resources and services.